Theta_e
349 349 351 352 368 364 364 361 354 355 356 353 351 353 357 355 360 364 346 346 343 345 349 350 350 351 352 351 350 343 346 344 345 350 351 351 351 352 352 352 352 351 351 350 351 351 350 350 349
351 352 352 354 369 362 359 356 357 356 355 353 353 353 355 357 352 349 351 347 344 348 349 350 349 350 351 352 348 347 349 348 350 351 351 351 351 349 352 350 346 345 347 346 351 351 350 348 345
353 351 354 361 359 362 360 356 357 356 353 353 355 353 355 355 351 349 347 348 349 349 350 351 351 351 352 350 344 347 351 352 351 352 352 352 351 351 352 345 348 344 348 352 350 348 346 344 343
352 352 354 369 359 358 357 356 356 357 354 353 353 358 352 350 350 349 349 349 350 350 351 349 351 353 352 351 348 352 352 352 351 352 352 352 352 352 349 349 351 352 349 345 345 345 344 343 342
353 357 363 362 356 356 355 355 355 356 355 354 353 357 355 349 350 349 349 349 349 349 350 350 349 351 351 352 352 351 352 352 352 352 352 352 352 352 347 348 350 353 350 349 344 344 343 343 343
360 354 361 354 350 353 357 355 354 354 354 354 355 356 356 350 350 349 349 348 348 348 348 349 349 351 351 353 352 352 352 350 349 349 352 352 352 351 351 347 349 353 351 345 342 343 344 345 345
361 357 353 349 351 351 357 354 355 354 355 354 352 359 355 350 350 349 348 347 347 347 346 347 348 350 353 352 352 352 351 344 350 350 350 350 347 346 347 346 345 346 348 345 343 344 344 345 344
354 353 353 351 351 353 356 355 354 352 355 350 350 357 359 350 349 349 349 348 348 347 346 346 348 348 349 350 352 352 350 344 347 346 345 344 345 347 346 350 344 342 343 344 345 346 346 345 346
350 356 353 351 351 355 355 357 352 349 352 351 350 351 351 349 349 349 349 348 349 346 345 345 346 348 348 348 348 349 345 345 344 343 342 349 352 353 352 346 346 344 344 345 345 345 345 344 344
353 356 351 348 348 352 356 355 354 352 353 352 352 349 349 348 349 350 350 349 349 347 345 345 345 346 348 347 349 349 346 346 348 351 352 352 354 354 353 349 346 346 345 344 343 344 345 348 350
349 354 349 346 346 349 355 356 353 352 353 352 354 352 350 349 349 349 349 349 349 347 345 344 344 347 347 346 348 348 346 347 349 353 353 353 353 354 353 352 351 352 349 350 350 350 349 348 348
351 347 350 347 344 346 353 354 355 352 349 348 351 350 350 350 350 349 348 348 348 348 346 345 346 347 347 346 346 346 344 346 346 348 352 352 351 353 354 352 351 353 350 350 350 349 349 350 348
350 345 346 346 344 343 348 353 353 354 348 347 350 350 351 350 349 348 347 347 347 348 347 347 348 349 349 349 346 345 344 343 344 347 348 349 351 353 354 354 353 352 352 350 350 351 349 347 346
342 344 343 342 343 340 347 350 353 353 350 350 351 351 350 350 349 348 348 347 347 347 346 347 348 349 349 349 349 348 347 344 345 345 346 349 350 353 350 352 352 352 353 351 349 349 348 346 347
340 339 334 334 338 338 345 350 354 353 353 353 352 351 350 350 348 349 348 347 347 347 347 347 349 349 350 350 351 350 345 344 344 343 346 348 350 352 349 353 351 351 350 352 350 349 347 348 347
332 332 335 337 337 337 343 348 352 353 355 355 353 351 350 350 348 347 346 346 346 346 347 348 348 348 351 351 351 348 345 344 343 343 346 348 350 353 355 353 353 354 351 350 351 350 350 347 338
330 334 335 339 336 339 344 346 346 353 354 356 355 352 350 350 348 346 347 347 347 347 348 349 349 348 349 351 350 348 346 345 342 344 347 350 352 355 356 353 353 351 353 350 351 351 350 347 343
332 333 335 339 337 339 346 345 343 350 352 355 355 353 352 350 349 346 347 347 348 348 348 349 349 349 350 350 351 347 345 344 342 345 347 349 352 356 357 354 353 356 353 351 351 351 347 344 342
331 332 334 337 336 338 341 343 344 344 350 351 354 354 353 351 348 346 347 346 347 348 349 350 350 350 350 350 349 346 344 343 343 345 349 354 357 357 357 353 357 355 354 353 352 351 350 344 342
328 329 332 335 334 334 337 339 340 340 346 349 353 354 354 352 350 348 347 347 347 348 350 352 352 352 353 351 348 344 343 343 344 348 353 357 357 358 357 353 354 355 353 354 354 352 346 345 342
327 329 331 333 334 332 334 337 337 337 340 345 348 352 352 352 351 350 348 347 347 348 351 353 354 353 354 351 350 349 346 346 347 350 354 356 356 357 357 356 353 355 352 352 354 354 350 344 339
327 326 327 329 332 337 334 341 341 340 342 346 347 351 353 352 351 350 348 347 347 349 351 353 355 356 356 354 349 350 347 346 348 350 351 352 356 355 355 358 350 355 353 354 354 353 350 349 338
324 325 326 326 329 331 334 336 338 339 340 346 348 349 352 352 352 351 350 347 346 348 351 353 355 357 356 355 351 351 350 345 349 350 351 353 353 356 355 356 357 357 356 356 356 354 353 348 340
324 324 325 326 327 331 333 335 337 338 341 341 346 348 351 351 352 352 349 346 347 348 350 353 356 358 357 357 356 354 352 348 350 353 353 353 353 353 356 355 356 356 357 357 357 356 353 350 345
324 325 327 327 328 330 331 333 335 335 336 339 342 346 349 352 352 352 353 351 348 348 350 352 356 359 358 357 357 356 355 353 354 355 355 353 351 352 352 357 356 356 359 357 358 357 353 352 348
325 326 326 328 327 327 329 331 333 333 334 335 338 340 347 350 351 352 353 352 351 349 351 353 356 358 359 358 358 358 357 354 354 355 354 354 351 350 351 354 356 358 357 358 358 356 353 351 351
327 328 325 325 327 327 327 328 329 331 333 334 334 337 340 348 351 351 352 351 352 352 353 354 357 359 359 358 359 359 358 357 354 354 357 355 354 351 353 354 357 357 357 358 358 355 353 350 351
327 326 325 326 327 328 325 328 329 331 332 334 334 336 339 343 349 351 350 350 350 352 353 355 357 359 359 357 358 358 358 358 357 356 357 356 355 355 352 356 356 357 357 359 358 355 353 352 350
326 327 326 326 326 328 328 328 329 330 333 332 334 337 340 343 347 350 351 349 350 350 351 355 357 358 358 357 358 358 358 358 358 357 358 358 357 357 356 355 356 355 358 359 358 355 353 353 351
326 326 327 327 330 327 328 327 326 328 329 333 334 336 338 340 343 346 347 348 349 350 350 351 354 356 357 357 358 358 358 358 358 359 358 358 358 358 357 357 357 355 356 358 358 357 353 353 351
Wind_Speed
16 15 10 8 3 5 5 5 5 8 7 3 7 3 10 11 6 6 20 25 33 23 17 17 20 19 21 22 22 22 20 18 15 15 14 12 11 11 11 11 11 11 10 10 8 8 8 7 7
16 13 6 3 5 3 7 4 6 6 9 11 10 8 8 6 8 12 18 30 34 21 20 19 22 20 20 21 22 20 17 15 15 14 12 12 11 11 10 11 12 11 10 8 8 8 7 7 6
14 9 4 4 2 5 8 3 7 8 8 6 5 7 5 5 15 10 25 32 24 22 20 20 21 22 20 20 20 18 16 15 14 12 11 11 11 10 10 12 10 8 8 8 7 7 6 6 6
8 5 4 7 9 7 7 4 9 8 7 4 9 9 8 8 17 18 35 28 23 22 21 21 20 20 20 19 17 16 15 14 13 11 11 10 9 9 10 9 10 8 8 8 7 6 6 6 6
5 4 4 5 8 4 4 5 8 6 6 8 5 7 9 15 18 34 30 27 26 24 22 21 21 20 18 17 16 15 14 13 12 11 10 8 8 8 9 9 8 8 7 7 7 7 7 7 6
5 3 7 3 8 4 7 8 6 4 7 8 9 15 6 16 29 30 29 27 26 24 24 22 21 19 18 15 15 13 13 12 11 10 9 8 8 7 7 6 6 7 6 7 8 8 8 7 6
7 6 1 2 6 6 7 8 4 6 8 7 14 11 11 22 27 29 27 25 25 24 24 23 20 17 16 14 13 12 11 11 10 9 8 8 8 7 6 6 5 5 6 6 7 8 7 7 7
5 5 6 4 3 10 8 7 6 6 8 14 11 7 16 26 29 29 27 25 23 25 23 22 20 18 15 13 13 11 10 10 9 8 7 7 6 7 7 8 6 5 5 6 6 6 6 6 7
3 6 4 5 4 9 12 8 6 7 12 7 8 7 25 33 30 29 27 25 23 24 24 23 21 18 16 14 12 10 9 9 8 7 7 6 5 4 4 5 7 6 5 4 5 5 5 4 6
9 9 5 5 4 3 12 8 10 8 13 13 9 17 30 33 29 28 27 26 26 26 25 23 22 19 16 14 12 10 9 8 7 6 5 5 3 3 2 3 4 5 3 2 2 2 4 2 5
10 10 3 6 7 2 11 10 9 8 12 16 16 22 28 31 28 27 27 27 28 27 25 24 22 19 17 14 12 11 10 9 8 7 5 4 2 2 1 3 3 3 3 2 2 1 1 3 2
9 10 7 3 3 1 7 10 10 10 4 13 17 23 27 27 25 28 27 27 27 26 25 23 21 19 18 14 13 11 11 10 8 7 6 4 2 2 1 1 2 2 3 2 0 2 3 1 4
16 8 6 8 7 4 6 10 9 13 8 14 19 23 26 24 27 28 27 27 26 26 25 23 22 20 18 15 13 12 11 10 9 8 7 5 4 2 2 1 2 1 1 1 2 1 1 2 4
9 14 8 9 9 7 8 9 12 11 12 15 20 24 25 25 28 27 27 26 27 26 25 23 22 20 18 17 14 13 11 10 10 8 7 7 5 3 3 3 2 3 1 5 1 2 1 3 2
14 10 11 11 12 6 8 10 13 11 16 18 20 21 23 24 28 28 29 27 27 25 24 24 22 21 20 18 16 14 13 12 11 10 9 8 7 6 5 2 2 2 2 1 2 1 2 4 1
16 16 15 15 16 12 13 11 17 16 19 20 21 21 22 24 29 29 28 27 27 25 25 24 23 23 21 19 17 16 15 14 12 11 10 9 9 8 6 5 3 1 2 4 2 4 2 3 3
14 15 19 14 11 10 16 11 14 19 19 19 20 22 21 22 26 30 29 29 27 27 26 25 24 24 23 20 18 17 15 15 13 12 11 10 9 9 8 7 4 1 1 1 2 1 3 2 2
19 19 16 19 14 13 16 16 7 18 19 19 20 20 21 23 26 31 30 29 27 27 26 25 25 24 23 20 19 17 17 16 15 15 13 11 11 11 10 9 5 3 3 1 2 2 1 1 2
16 16 20 16 11 13 16 15 14 13 18 18 19 20 22 23 24 30 30 29 28 27 28 27 27 27 25 24 22 21 20 18 17 16 15 13 13 13 13 10 8 6 3 1 3 2 2 2 2
22 17 20 13 7 12 15 15 14 12 17 18 19 22 23 21 22 26 31 31 31 30 29 29 29 28 28 25 24 21 21 19 19 18 16 13 12 12 11 11 8 7 4 2 2 2 2 1 0
23 23 18 17 14 15 14 16 15 14 14 15 19 21 21 22 23 24 28 33 33 32 32 31 30 29 27 26 23 19 18 18 19 20 17 15 13 12 11 11 10 8 6 4 3 4 4 1 2
25 23 19 18 12 13 16 17 20 22 17 18 18 20 22 24 24 23 27 32 35 35 33 31 30 29 27 27 24 24 24 22 22 21 20 18 16 15 13 12 11 12 9 6 4 5 5 4 4
21 17 18 20 17 17 22 10 16 13 17 19 19 21 23 24 25 25 25 35 38 36 34 32 31 30 30 29 29 26 25 24 19 20 19 20 18 17 16 15 12 11 11 9 7 7 7 6 4
14 16 14 15 16 19 23 20 19 17 18 18 19 19 22 23 25 26 32 32 34 34 33 31 31 32 33 32 31 29 27 27 22 20 19 19 19 20 20 19 15 16 13 11 10 9 9 8 6
22 20 10 12 16 20 22 22 20 8 19 21 18 20 22 23 24 25 24 26 33 36 37 35 33 33 33 33 32 33 32 28 26 22 22 18 19 19 19 20 19 17 16 14 12 11 10 11 9
28 24 11 17 15 17 17 22 24 23 20 7 19 17 19 21 21 24 26 29 33 36 37 36 33 33 34 34 35 34 34 33 30 27 26 22 21 19 18 20 21 20 17 15 14 12 13 12 12
25 25 28 11 5 8 15 19 16 14 21 24 23 19 18 21 23 25 26 33 35 36 36 37 37 37 37 39 36 36 35 35 32 30 28 28 23 21 20 21 22 21 19 17 17 15 15 15 15
20 26 21 15 16 19 13 19 13 22 23 22 23 22 20 21 22 23 23 29 36 38 39 40 40 40 40 37 36 37 37 36 36 31 31 28 27 26 22 22 23 22 20 20 20 17 17 17 17
23 18 24 17 17 12 11 12 16 18 17 23 23 22 20 20 20 21 22 30 35 35 35 39 40 40 38 39 39 37 37 37 36 36 34 33 29 28 28 25 24 24 22 22 22 21 19 20 19
28 24 29 13 23 19 14 8 7 7 16 18 19 20 20 19 19 19 20 23 28 33 36 38 40 40 41 39 38 41 39 37 37 37 37 34 33 31 30 29 27 26 25 24 24 24 24 23 23
Wind_Direction
154 157 171 195 248 237 70 86 78 128 139 92 106 84 76 39 23 104 132 145 156 153 152 144 142 135 132 134 140 143 139 137 133 124 117 115 106 99 91 85 85 92 90 91 100 107 104 107 110
159 166 213 262 257 151 85 84 118 106 93 113 114 132 120 77 88 124 132 153 153 155 151 146 146 144 138 141 141 142 136 134 128 123 123 113 103 95 90 86 86 85 88 91 98 101 111 110 105
167 180 254 258 233 57 74 95 104 116 132 146 106 51 64 91 125 128 147 151 153 151 146 148 145 145 144 142 143 140 135 132 128 123 119 109 104 98 93 92 79 85 95 92 95 103 112 106 98
163 206 232 258 80 86 33 101 133 138 124 133 117 88 91 127 131 147 150 152 150 147 145 149 143 145 143 143 144 139 137 132 127 123 111 105 104 98 98 78 78 82 89 94 96 98 101 102 89
236 244 246 247 91 85 74 114 159 148 130 147 158 104 102 125 137 147 150 156 151 147 146 148 147 146 144 145 142 142 138 135 128 117 112 112 105 94 93 82 76 83 82 85 85 88 93 90 91
227 265 242 89 85 81 88 129 145 117 121 109 123 124 119 144 143 153 155 158 154 149 150 152 155 151 147 146 144 145 143 135 127 122 122 114 103 99 91 93 89 82 81 84 85 86 88 92 88
273 258 339 356 66 125 112 147 149 119 137 143 133 123 126 143 152 156 158 159 155 154 154 156 156 156 151 150 149 147 143 138 134 137 129 118 111 104 95 87 89 89 92 92 89 85 80 80 81
261 265 246 130 127 100 126 142 111 140 110 120 135 153 156 154 157 156 159 158 161 160 160 161 161 162 160 158 157 154 149 147 147 147 137 128 112 97 79 74 65 85 94 95 90 84 83 81 76
260 255 188 105 204 117 147 133 124 97 137 157 157 149 146 154 157 158 157 163 164 166 168 168 168 169 167 166 173 165 160 164 159 146 146 112 131 106 84 99 82 86 89 87 80 75 87 89 71
227 275 67 55 35 158 164 156 144 151 154 147 134 116 148 158 163 165 165 167 170 172 175 175 176 174 174 173 176 174 177 176 174 170 164 155 148 113 97 108 95 93 87 69 57 51 102 72 138
208 251 130 112 48 312 162 173 161 156 173 168 155 149 157 165 172 174 174 174 174 176 179 180 181 180 182 181 182 182 183 187 191 188 184 179 176 127 85 102 128 117 86 120 102 360 37 88 30
238 237 258 135 4 315 190 158 178 175 91 161 153 160 164 172 178 179 178 177 178 180 185 184 185 187 190 189 191 189 189 193 196 192 195 197 195 152 129 73 104 162 116 55 38 32 20 297 112
222 226 245 250 252 298 198 191 197 188 131 153 153 166 174 180 180 183 183 181 182 184 186 188 188 191 193 194 197 199 200 200 203 204 205 205 210 208 234 284 295 344 76 358 316 22 96 132 102
194 225 236 243 232 247 219 196 195 191 150 155 165 175 178 186 186 186 188 187 188 188 188 189 193 194 195 197 200 201 204 207 212 212 213 221 216 222 245 284 258 278 352 69 5 15 63 180 133
220 222 224 229 226 221 216 211 204 164 169 165 175 179 184 187 188 190 190 190 191 192 190 191 195 198 199 201 204 206 209 212 215 215 218 220 225 228 222 258 275 291 36 310 193 201 240 229 78
218 226 236 224 208 202 206 216 188 169 181 179 176 181 186 188 190 192 193 194 193 195 194 194 197 199 202 203 204 207 211 214 218 220 219 221 222 228 240 243 256 354 317 291 229 225 262 131 150
205 222 217 190 205 191 202 237 158 174 191 187 184 180 186 188 194 194 196 197 196 197 196 198 199 201 202 205 207 210 212 215 219 220 218 224 227 226 229 244 249 275 261 280 245 276 289 68 173
206 218 230 210 190 204 204 236 161 178 198 195 189 186 188 192 198 195 198 198 199 198 199 200 201 202 202 204 208 213 215 218 220 221 224 230 235 231 231 242 237 276 320 272 190 219 62 101 11
227 220 227 210 213 220 230 231 233 192 198 207 192 194 195 197 194 196 198 199 200 201 201 202 202 202 200 202 204 208 212 215 219 221 225 231 239 235 232 236 237 241 264 327 199 164 151 158 25
230 228 227 227 168 231 233 234 232 215 206 209 198 198 204 194 192 195 196 199 200 202 204 204 206 204 203 205 207 210 211 217 219 219 224 229 226 222 230 224 226 223 256 228 215 197 192 206 286
222 225 228 230 203 230 255 251 233 213 213 212 210 203 203 199 195 192 196 199 199 202 204 204 205 206 206 209 206 208 214 221 218 219 222 224 217 217 222 232 234 227 230 251 201 203 223 204 173
219 217 236 240 222 240 198 253 224 222 208 208 208 202 202 199 197 196 195 200 202 204 204 205 206 206 207 205 206 205 208 210 215 217 221 221 219 221 226 239 239 220 234 242 227 219 223 229 176
230 220 219 235 242 249 248 247 254 198 217 210 211 205 203 201 196 199 199 200 205 203 204 205 205 205 205 203 208 205 214 215 215 220 221 220 223 225 228 233 234 229 226 221 221 207 207 214 250
212 221 222 230 234 239 236 238 244 233 215 222 210 208 202 204 200 200 204 202 206 206 206 206 206 208 206 204 206 207 210 215 214 215 219 223 223 225 229 230 234 230 221 219 220 212 210 209 218
202 196 196 210 219 234 227 235 235 251 234 216 219 206 202 201 202 199 199 202 203 205 205 206 204 206 206 208 210 211 213 212 217 213 217 222 221 222 225 225 221 221 218 219 214 212 214 211 212
196 203 207 210 219 228 216 233 235 234 238 236 234 216 199 201 203 203 199 202 204 205 204 205 203 206 207 209 211 212 213 219 222 222 226 224 227 223 222 217 213 216 216 216 213 215 217 216 215
194 213 216 250 192 268 226 218 241 253 220 224 230 223 207 197 199 204 204 203 202 204 206 203 203 205 205 207 208 211 213 216 221 223 221 225 224 224 219 216 214 215 215 214 210 217 219 216 214
209 204 214 228 243 241 226 232 226 212 216 219 215 213 206 200 200 204 207 207 206 205 204 204 205 204 205 208 210 212 214 216 217 217 218 220 221 220 218 215 215 214 214 212 209 215 218 218 217
201 201 213 225 230 218 235 235 211 230 211 216 212 210 203 198 198 202 205 208 209 208 206 206 205 206 206 206 208 210 212 214 216 218 217 217 218 214 214 213 214 215 214 212 211 214 217 217 218
203 205 201 214 210 239 278 261 116 226 215 215 215 208 211 207 203 203 205 205 206 207 210 208 209 209 211 208 206 207 209 211 213 214 215 215 216 215 212 211 212 213 215 214 213 215 218 218 217